Location: Stonelick Lake State Park
(39.2170°N, 84.0850°W)
Time: 19:30:08
(UTC-05:00)

Amateur Radio Satellites - All Passes

Search period start: 12 February 2016 19:00
Search period end: 13 February 2016 19:00
Location: Stonelick Lake State Park, 39.2170°N, 84.0850°W

Satellite Date Start Highest point End Downlink Frequencies (MHz)
Time Altitude Azimuth
RS-15 12 Feb 19:04:25 19:15:31 39° 40° (NE) 19:26:45 29.354- 29.394
Cubesat XI-IV 12 Feb 19:06:06 19:10:34 27° 265° (W) 19:15:05 437.490
LilacSat-2 12 Feb 19:12:54 19:15:22 16° 266° (W) 19:17:50 437.200
CINEMA 3 12 Feb 19:19:31 19:22:55 21° 68° (ENE) 19:26:13 145.822/145.860
GOMX 1 12 Feb 19:19:55 19:25:17 68° 259° (W) 19:30:25 467.674
O/OREOS (USA 219) 12 Feb 19:20:59 19:22:24 11° 263° (W) 19:23:49 437.305
CANX-2 12 Feb 19:27:27 19:31:11 32° 71° (ENE) 19:34:57 2200.000
Cosmos 2499 12 Feb 19:37:33 19:42:48 18° 62° (ENE) 19:47:49 435.465 / 435.565
HO-68 12 Feb 19:47:31 19:54:38 70° 71° (ENE) 20:01:48 435.675
COMPASS 1 12 Feb 19:58:22 20:02:08 34° 71° (ENE) 20:05:55 437.405
CUBESAT XI-V 12 Feb 20:00:02 20:01:04 11° 299° (WNW) 20:02:07 437.345
AO-85 12 Feb 20:07:23 20:11:37 28° 250° (WSW) 20:15:31 145.980
PRISM 12 Feb 20:08:51 20:12:42 35° 98° (E) 20:16:31 437.425
ISS 12 Feb 20:09:10 20:11:14 16° 20° (NNE) 20:13:18 145.825
BRITE-PL 12 Feb 20:11:17 20:14:01 14° 270° (W) 20:16:45 437.365/2234.400
STRAND 1 12 Feb 20:14:56 20:20:02 61° 287° (WNW) 20:25:06 437.568
CUTE 1.7 + AOD 2 12 Feb 20:16:59 20:21:11 76° 259° (W) 20:25:25 437.475
SEEDS 12 Feb 20:17:45 20:21:56 81° 75° (ENE) 20:26:09 437.485
Oscar 11 12 Feb 20:22:11 20:25:31 22° 68° (ENE) 20:28:53 145.826/435.025
AAUSAT CUBESAT 2 12 Feb 20:23:39 20:27:41 55° 74° (ENE) 20:31:46 437.432
GONETS M04 12 Feb 20:24:20 20:33:12 83° 83° (E) 20:42:03
DOVE 4 12 Feb 20:24:26 20:28:46 28° 264° (W) 20:32:56 437.250
AIST 2 12 Feb 20:28:50 20:30:19 12° 319° (NW) 20:31:47 435.215
PCSat 12 Feb 20:29:10 20:34:28 55° 247° (WSW) 20:39:43 145.827
UWE-3 12 Feb 20:35:26 20:39:14 33° 72° (ENE) 20:43:00 435.000/436.395/437.385
CUBEBUG 2 12 Feb 20:41:00 20:45:12 56° 74° (ENE) 20:49:19 437.445
CINEMA 3 12 Feb 20:55:41 20:59:52 34° 262° (W) 21:03:54 145.822/145.860
AIST 1 12 Feb 20:58:18 21:01:19 18° 72° (ENE) 21:04:18
CANX-2 12 Feb 21:04:01 21:07:05 20° 266° (W) 21:10:11 2200.000
DELFI C3 12 Feb 21:12:46 21:16:30 41° 73° (ENE) 21:20:17 145.870
HUMSAT D 12 Feb 21:14:32 21:17:20 18° 67° (ENE) 21:20:08 437.325/437.525
RS-15 12 Feb 21:16:55 21:29:03 74° 244° (WSW) 21:41:16 29.354- 29.394
ZACube-1 12 Feb 21:21:47 21:25:59 82° 76° (ENE) 21:30:09 437.345
Cosmos 2499 12 Feb 21:28:50 21:37:11 87° 264° (W) 21:44:49 435.465 / 435.565
FUNcube-1 12 Feb 21:29:10 21:33:21 86° 257° (WSW) 21:37:31 145.935
COMPASS 1 12 Feb 21:34:58 21:37:48 18° 267° (W) 21:40:39 437.405
HO-68 12 Feb 21:37:46 21:42:53 21° 268° (W) 21:48:02 435.675
ISS 12 Feb 21:44:52 21:48:07 80° 41° (NE) 21:51:20 145.825
PRISM 12 Feb 21:44:55 21:47:45 18° 294° (WNW) 21:50:35 437.425
Oscar 11 12 Feb 21:57:43 22:01:29 30° 264° (W) 22:05:17 145.826/435.025
UNISAT 6 12 Feb 21:58:39 22:01:02 14° 92° (E) 22:03:24 437.425
UKube-1 12 Feb 21:59:29 22:00:38 11° 62° (ENE) 22:01:47 .
AAUSAT CUBESAT 2 12 Feb 22:02:27 22:03:32 11° 270° (W) 22:04:37 437.432
AISAT 12 Feb 22:03:11 22:05:37 15° 64° (ENE) 22:08:03 437.250
UWE-3 12 Feb 22:12:51 22:15:48 18° 266° (W) 22:18:43 435.000/436.395/437.385
CUBEBUG 1 12 Feb 22:13:25 22:15:51 15° 64° (ENE) 22:18:17 437.445
DX 1 12 Feb 22:15:04 22:18:14 20° 66° (ENE) 22:21:24 434.975-435.025
CUBEBUG 2 12 Feb 22:20:51 22:22:08 11° 269° (W) 22:23:25 437.445
50 SAT 12 Feb 22:22:13 22:25:05 22° 69° (ENE) 22:27:59 437.505
GONETS M04 12 Feb 22:23:14 22:28:51 19° 281° (WNW) 22:34:31
AIST 1 12 Feb 22:35:06 22:39:01 34° 269° (W) 22:42:53
ESTCUBE 1 12 Feb 22:36:06 22:40:11 34° 70° (ENE) 22:44:18 437.505/2401.250
ANTELSAT 12 Feb 22:42:07 22:46:18 43° 99° (E) 22:50:34 437.575/2403.000
TIGRISAT 12 Feb 22:47:49 22:52:02 48° 99° (E) 22:56:20 435.000
HUMSAT D 12 Feb 22:49:03 22:52:44 33° 263° (W) 22:56:27 437.325/437.525
DELFI C3 12 Feb 22:49:39 22:51:38 13° 268° (W) 22:53:36 145.870
POLYITAN 1 12 Feb 23:08:23 23:11:25 19° 94° (E) 23:14:26 437.675
QB50P2 12 Feb 23:08:48 23:11:55 20° 94° (E) 23:15:01 145.880/145.840
VELOX 1 12 Feb 23:19:51 23:24:19 88° 256° (WSW) 23:28:48 145.980
Cosmos 2499 12 Feb 23:24:53 23:28:49 14° 284° (WNW) 23:32:38 435.465 / 435.565
UKube-1 12 Feb 23:31:47 23:36:05 69° 257° (WSW) 23:40:26 .
RS-15 12 Feb 23:32:59 23:39:21 16° 264° (W) 23:45:45 29.354- 29.394
UNISAT 6 12 Feb 23:33:46 23:37:58 48° 287° (WNW) 23:42:15 437.425
TISAT 1 12 Feb 23:34:08 23:36:17 14° 65° (ENE) 23:38:26 437.305
SPROUT 12 Feb 23:35:43 23:39:41 38° 72° (ENE) 23:43:41 437.525
POPSAT HIP 1 12 Feb 23:37:01 23:40:58 39° 98° (E) 23:44:55 437.405
AISAT 12 Feb 23:37:17 23:41:40 53° 260° (W) 23:46:02 437.250
DUCHIFAT 1 12 Feb 23:39:33 23:43:29 39° 99° (E) 23:47:23 145.980
NANOSAT C BR1 12 Feb 23:39:35 23:43:34 41° 99° (E) 23:47:32 145.865
CUBEBUG 1 12 Feb 23:47:22 23:51:41 52° 260° (W) 23:56:02 437.445
QB50P1 12 Feb 23:49:12 23:53:21 56° 100° (E) 23:57:28 145.935-145.965
DX 1 12 Feb 23:50:08 23:54:10 36° 262° (W) 23:58:13 434.975-435.025
50 SAT 12 Feb 23:56:05 23:59:00 22° 264° (W) 00:01:58 437.505
PHONESAT 2.4 13 Feb 00:06:55 00:10:03 43° 157° (SSE) 00:13:12 2401.200-2431.200
ESTCUBE 1 13 Feb 00:13:37 00:17:03 21° 266° (W) 00:20:31 437.505/2401.250
BEESAT 3 13 Feb 00:19:05 00:20:25 11° 42° (NE) 00:21:45 437.485
ANTELSAT 13 Feb 00:19:54 00:22:41 17° 294° (WNW) 00:25:30 437.575/2403.000
TIGRISAT 13 Feb 00:25:50 00:28:22 15° 295° (WNW) 00:30:55 435.000
BUGSAT 1 13 Feb 00:26:52 00:30:54 73° 102° (ESE) 00:34:53 437.445
CUSAT 1 13 Feb 00:41:28 00:48:03 29° 86° (E) 00:54:33 437.405
POLYITAN 1 13 Feb 00:43:31 00:47:17 32° 289° (WNW) 00:51:03 437.675
QB50P2 13 Feb 00:44:02 00:47:46 31° 289° (WNW) 00:51:30 145.880/145.840
BEESAT 2 13 Feb 00:48:38 00:50:55 15° 45° (NE) 00:53:10 435.950
SWISSCUBE 13 Feb 01:07:23 01:11:32 31° 69° (ENE) 01:15:43 437.505
TISAT 1 13 Feb 01:07:26 01:11:32 49° 260° (W) 01:15:38 437.305
SPROUT 13 Feb 01:13:00 01:15:48 17° 267° (W) 01:18:37 437.525
POPSAT HIP 1 13 Feb 01:13:47 01:16:27 17° 294° (WNW) 01:19:07 437.405
Cosmos 2491 13 Feb 01:15:35 01:22:48 28° 69° (ENE) 01:29:59 435.465 / 435.565
DUCHIFAT 1 13 Feb 01:16:13 01:18:52 17° 294° (WNW) 01:21:31 145.980
NANOSAT C BR1 13 Feb 01:16:26 01:18:58 16° 294° (WNW) 01:21:31 145.865
QB50P1 13 Feb 01:26:58 01:28:39 12° 296° (WNW) 01:30:19 145.935-145.965
Gurwin Techsat 1B 13 Feb 01:29:57 01:32:06 12° 90° (E) 01:34:16 435.225
DANDE 13 Feb 01:41:45 01:49:12 47° 90° (E) 01:57:11 436.750
PHONESAT 2.4 13 Feb 01:43:58 01:47:15 73° 354° (N) 01:50:31 2401.200-2431.200
ITUPSAT 1 13 Feb 01:45:22 01:50:05 67° 74° (ENE) 01:54:51 437.325
BEESAT 13 Feb 01:51:32 01:56:16 79° 76° (ENE) 02:01:03 436.000
BEESAT 3 13 Feb 01:54:44 01:58:43 80° 239° (WSW) 02:02:37 437.485
YUBILEINY 13 Feb 02:04:10 02:10:36 23° 80° (E) 02:17:03 435.215
Oscar 19 13 Feb 02:08:39 02:13:48 84° 103° (ESE) 02:18:55 437.125/150
JAS-2 13 Feb 02:15:15 02:20:44 64° 101° (ESE) 02:25:52 435.910
CUSAT 1 13 Feb 02:21:53 02:29:51 62° 282° (WNW) 02:37:41 437.405
BEESAT 2 13 Feb 02:25:14 02:29:10 57° 242° (WSW) 02:33:02 435.950
KKS-1 13 Feb 02:36:27 02:40:21 31° 70° (ENE) 02:44:16 437.445
SWISSCUBE 13 Feb 02:45:19 02:49:18 26° 264° (W) 02:53:19 437.505
MOZHAYETS 4 13 Feb 02:55:46 02:59:00 20° 66° (ENE) 03:02:17
Gurwin Techsat 1B 13 Feb 03:07:16 03:12:36 75° 285° (WNW) 03:17:53 435.225
AO-7 13 Feb 03:09:31 03:15:29 21° 93° (E) 03:21:23 29.400- 29.500
AIST 2 13 Feb 03:09:37 03:13:33 39° 54° (NE) 03:17:25 435.215
Cosmos 2491 13 Feb 03:11:36 03:20:11 63° 268° (W) 03:28:47 435.465 / 435.565
PHONESAT 2.4 13 Feb 03:21:18 03:24:37 84° 15° (NNE) 03:27:53 2401.200-2431.200
Cosmos 2504 13 Feb 03:24:09 03:28:36 15° 76° (ENE) 03:33:07 435.465 / 435.565
DANDE 13 Feb 03:24:49 03:32:14 40° 288° (WNW) 03:40:06 436.750
ITAMSAT 1 13 Feb 03:25:00 03:30:16 84° 103° (ESE) 03:35:31 435.822/435.867
ITUPSAT 1 13 Feb 03:26:39 03:28:22 12° 270° (W) 03:30:05 437.325
SO-50 13 Feb 03:38:22 03:42:15 24° 111° (ESE) 03:46:11 436.795
STARS 13 Feb 03:45:50 03:50:14 84° 254° (WSW) 03:54:39 437.465
Oscar 19 13 Feb 03:50:30 03:52:23 12° 300° (WNW) 03:54:15 437.125/150
HORYU 2 13 Feb 03:57:07 03:59:09 13° 92° (E) 04:01:12 437.375
YUBILEINY 13 Feb 03:57:44 04:06:29 71° 279° (W) 04:15:20 435.215
JAS-2 13 Feb 04:02:03 04:05:09 15° 301° (WNW) 04:08:07 435.910
CUSAT 1 13 Feb 04:10:18 04:13:31 13° 300° (WNW) 04:16:40 437.405
KKS-1 13 Feb 04:13:23 04:16:56 23° 265° (W) 04:20:28 437.445
MOZHAYETS 4 13 Feb 04:31:37 04:35:53 39° 262° (W) 04:40:12
M-CUBED/EXP-1 PRIME 13 Feb 04:33:20 04:36:25 28° 103° (ESE) 04:39:41 437.505
AUBIESAT-1 13 Feb 04:39:55 04:43:02 28° 103° (ESE) 04:46:20 437.475
AIST 2 13 Feb 04:48:58 04:51:43 18° 250° (WSW) 04:54:28 435.215
PHONESAT 2.4 13 Feb 04:58:46 05:01:41 30° 207° (SSW) 05:04:36 2401.200-2431.200
AO-7 13 Feb 05:00:39 05:08:59 77° 290° (WNW) 05:17:15 29.400- 29.500
ITAMSAT 1 13 Feb 05:06:52 05:09:00 13° 300° (WNW) 05:11:08 435.822/435.867
Cosmos 2504 13 Feb 05:11:52 05:20:29 81° 95° (E) 05:29:26 435.465 / 435.565
SO-50 13 Feb 05:17:52 05:22:30 42° 307° (NW) 05:27:13 436.795
CUBESAT XI-V 13 Feb 05:21:33 05:26:12 68° 74° (ENE) 05:30:54 437.345
HORYU 2 13 Feb 05:31:40 05:36:02 54° 287° (WNW) 05:40:23 437.375
CUTE-I 13 Feb 05:31:56 05:33:06 11° 89° (E) 05:34:15 437.470
Cubesat XI-IV 13 Feb 05:45:05 05:48:12 15° 91° (E) 05:51:18 437.490
STRAND 1 13 Feb 05:52:16 05:55:58 20° 64° (ENE) 05:59:40 437.568
YUBILEINY 13 Feb 06:01:18 06:05:04 13° 301° (WNW) 06:08:52 435.215
M-CUBED/EXP-1 PRIME 13 Feb 06:08:39 06:10:54 16° 296° (WNW) 06:13:13 437.505
AUBIESAT-1 13 Feb 06:15:06 06:17:27 17° 296° (WNW) 06:19:54 437.475
BRITE-PL 13 Feb 06:37:00 06:40:41 24° 93° (E) 06:44:10 437.365/2234.400
LilacSat-2 13 Feb 06:45:52 06:49:35 54° 100° (E) 06:53:17 437.200
AO-7 13 Feb 06:55:31 07:00:25 17° 310° (NW) 07:05:18 29.400- 29.500
PRISM 13 Feb 06:57:42 07:01:01 23° 68° (ENE) 07:04:22 437.425
CUBESAT XI-V 13 Feb 07:02:37 07:04:02 11° 271° (W) 07:05:27 437.345
CUTE-I 13 Feb 07:08:21 07:13:46 86° 284° (WNW) 07:19:09 437.470
Cosmos 2504 13 Feb 07:08:35 07:14:54 22° 295° (WNW) 07:21:24 435.465 / 435.565
HO-68 13 Feb 07:19:42 07:22:24 12° 88° (E) 07:25:04 435.675
Cubesat XI-IV 13 Feb 07:23:20 07:28:41 63° 287° (WNW) 07:33:59 437.490
GOMX 1 13 Feb 07:23:43 07:27:42 35° 97° (E) 07:31:32 467.674
STRAND 1 13 Feb 07:29:51 07:34:46 47° 261° (W) 07:39:44 437.568
GONETS M04 13 Feb 07:31:17 07:36:38 18° 78° (ENE) 07:42:01
O/OREOS (USA 219) 13 Feb 07:50:03 07:54:32 87° 291° (WNW) 07:59:04 437.305
CUTE 1.7 + AOD 2 13 Feb 08:03:47 08:06:57 20° 94° (E) 08:10:06 437.475
SEEDS 13 Feb 08:04:11 08:06:38 15° 92° (E) 08:09:02 437.485
Cosmos 2499 13 Feb 08:14:21 08:18:48 15° 76° (ENE) 08:23:16 435.465 / 435.565
BRITE-PL 13 Feb 08:15:15 08:19:12 28° 291° (WNW) 08:22:55 437.365/2234.400
LilacSat-2 13 Feb 08:22:59 08:23:25 10° 295° (WNW) 08:23:51 437.200
DOVE 4 13 Feb 08:23:54 08:28:06 88° 98° (E) 08:32:14 437.250
PRISM 13 Feb 08:32:41 08:36:14 27° 264° (W) 08:39:48 437.425
CUBEBUG 2 13 Feb 08:34:36 08:36:17 12° 92° (E) 08:37:59 437.445
AO-85 13 Feb 08:40:46 08:44:06 17° 107° (ESE) 08:47:30 145.980
CANX-2 13 Feb 08:48:39 08:52:57 76° 100° (E) 08:57:15 2200.000
CINEMA 3 13 Feb 08:50:51 08:54:56 56° 100° (E) 08:59:05 145.822/145.860
CUTE-I 13 Feb 08:51:21 08:52:58 11° 302° (WNW) 08:54:35 437.470
UNISAT 6 13 Feb 08:58:06 08:59:27 11° 63° (ENE) 09:00:49 437.425
GOMX 1 13 Feb 09:02:37 09:05:31 18° 294° (WNW) 09:08:21 467.674
HO-68 13 Feb 09:03:50 09:11:05 80° 105° (ESE) 09:18:16 435.675
ZACube-1 13 Feb 09:12:05 09:14:49 16° 93° (E) 09:17:35 437.345
COMPASS 1 13 Feb 09:17:18 09:21:33 78° 101° (E) 09:25:46 437.405
FUNcube-1 13 Feb 09:18:55 09:21:56 19° 94° (E) 09:25:00 145.935
GONETS M04 13 Feb 09:23:34 09:32:15 84° 277° (W) 09:41:02
PCSat 13 Feb 09:27:40 09:31:47 22° 106° (ESE) 09:35:54 145.827
AIST 1 13 Feb 09:28:25 09:29:50 11° 84° (E) 09:31:15
RS-15 13 Feb 09:31:41 09:38:33 19° 98° (E) 09:45:33 29.354- 29.394
SEEDS 13 Feb 09:38:29 09:42:32 43° 287° (WNW) 09:46:34 437.485
CUTE 1.7 + AOD 2 13 Feb 09:39:00 09:42:51 33° 289° (WNW) 09:46:40 437.475
ANTELSAT 13 Feb 09:40:14 09:44:04 33° 71° (ENE) 09:47:54 437.575/2403.000
JUGNU 13 Feb 09:40:21 09:41:18 10° 184° (S) 09:42:15 437.505
AAUSAT CUBESAT 2 13 Feb 09:42:22 09:46:33 66° 285° (WNW) 09:50:43 437.432
Oscar 11 13 Feb 09:45:18 09:49:33 51° 99° (E) 09:53:47 145.826/435.025
TIGRISAT 13 Feb 09:45:42 09:49:36 36° 72° (ENE) 09:53:30 435.000
POLYITAN 1 13 Feb 10:01:13 10:03:20 14° 65° (ENE) 10:05:26 437.675
QB50P2 13 Feb 10:01:31 10:03:46 14° 65° (ENE) 10:06:00 145.880/145.840
UWE-3 13 Feb 10:01:38 10:05:53 90° 122° (ESE) 10:10:14 435.000/436.395/437.385
Cosmos 2499 13 Feb 10:01:43 10:10:27 80° 95° (E) 10:19:22 435.465 / 435.565
CUBEBUG 2 13 Feb 10:09:05 10:13:11 52° 286° (WNW) 10:17:24 437.445
AO-85 13 Feb 10:18:43 10:24:02 67° 304° (WNW) 10:29:33 145.980
DELFI C3 13 Feb 10:26:19 10:30:23 84° 99° (E) 10:34:26 145.870
POPSAT HIP 1 13 Feb 10:28:47 10:32:19 26° 69° (ENE) 10:35:50 437.405
CINEMA 3 13 Feb 10:30:07 10:31:38 12° 296° (WNW) 10:33:09 145.822/145.860
DUCHIFAT 1 13 Feb 10:30:46 10:34:14 26° 69° (ENE) 10:37:44 145.980
NANOSAT C BR1 13 Feb 10:30:59 10:34:34 27° 70° (ENE) 10:38:07 145.865
UNISAT 6 13 Feb 10:31:24 10:35:39 63° 259° (W) 10:39:54 437.425
HUMSAT D 13 Feb 10:33:06 10:37:02 38° 98° (E) 10:41:00 437.325/437.525
QB50P1 13 Feb 10:40:39 10:44:31 36° 71° (ENE) 10:48:24 145.935-145.965
ZACube-1 13 Feb 10:47:17 10:51:15 39° 287° (WNW) 10:55:17 437.345
HO-68 13 Feb 10:53:04 10:57:58 20° 303° (WNW) 11:02:51 435.675
FUNcube-1 13 Feb 10:54:25 10:58:15 34° 289° (WNW) 11:02:10 145.935
AIST 1 13 Feb 11:02:33 11:06:52 56° 280° (W) 11:11:13
PCSat 13 Feb 11:09:35 11:14:49 48° 303° (WNW) 11:20:04 145.827
VELOX 1 13 Feb 11:12:09 11:15:15 19° 94° (E) 11:18:20 145.980
BUGSAT 1 13 Feb 11:15:21 11:19:19 43° 73° (ENE) 11:23:16 437.445
ANTELSAT 13 Feb 11:17:45 11:20:51 19° 266° (W) 11:23:58 437.575/2403.000
UKube-1 13 Feb 11:20:49 11:24:03 20° 95° (E) 11:27:17 .
Oscar 11 13 Feb 11:22:56 11:25:14 14° 295° (WNW) 11:27:33 145.826/435.025
SRMSAT 13 Feb 11:23:22 11:24:38 11° 182° (S) 11:25:54 437.500
TIGRISAT 13 Feb 11:23:30 11:26:25 18° 266° (W) 11:29:19 435.000
CUSAT 1 13 Feb 11:23:40 11:24:09 10° 57° (ENE) 11:24:36 437.405
GONETS M04 13 Feb 11:25:27 11:30:29 16° 298° (WNW) 11:35:33
50 SAT 13 Feb 11:27:48 11:31:17 33° 98° (E) 11:34:45 437.505
AISAT 13 Feb 11:28:55 11:32:47 30° 97° (E) 11:36:38 437.250
POLYITAN 1 13 Feb 11:34:37 11:38:43 50° 260° (W) 11:42:50 437.675
QB50P2 13 Feb 11:35:04 11:39:10 48° 260° (W) 11:43:16 145.880/145.840
CUBEBUG 1 13 Feb 11:37:21 11:41:12 30° 97° (E) 11:44:59 437.445
RS-15 13 Feb 11:37:53 11:48:59 84° 119° (ESE) 12:00:45 29.354- 29.394
DX 1 13 Feb 11:39:08 11:43:13 39° 99° (E) 11:47:16 434.975-435.025
Oscar 19 13 Feb 11:48:24 11:50:50 13° 61° (ENE) 11:53:15 437.125/150
Cosmos 2499 13 Feb 11:58:04 12:04:33 22° 294° (WNW) 12:11:07 435.465 / 435.565
AO-85 13 Feb 12:02:53 12:05:37 14° 323° (NW) 12:08:22 145.980
POPSAT HIP 1 13 Feb 12:04:36 12:08:03 24° 265° (W) 12:11:30 437.405
ESTCUBE 1 13 Feb 12:05:50 12:10:24 88° 108° (ESE) 12:14:56 437.505/2401.250
DUCHIFAT 1 13 Feb 12:06:27 12:09:53 24° 264° (W) 12:13:20 145.980
NANOSAT C BR1 13 Feb 12:06:53 12:10:15 23° 265° (W) 12:13:39 145.865
HUMSAT D 13 Feb 12:09:39 12:12:23 17° 293° (WNW) 12:15:08 437.325/437.525
SO-50 13 Feb 12:10:41 12:14:08 19° 43° (NE) 12:17:31 436.795
QB50P1 13 Feb 12:17:35 12:20:25 17° 266° (W) 12:23:15 145.935-145.965
JAS-2 13 Feb 12:25:06 12:31:25 31° 66° (ENE) 12:37:15 435.910
DANDE 13 Feb 12:26:11 12:31:40 28° 66° (ENE) 12:36:02 436.750
VELOX 1 13 Feb 12:47:47 12:51:50 37° 289° (WNW) 12:55:52 145.980
Gurwin Techsat 1B 13 Feb 12:49:23 12:53:05 20° 64° (ENE) 12:56:48 435.225
BUGSAT 1 13 Feb 12:52:35 12:54:54 14° 267° (W) 12:57:12 437.445
TISAT 1 13 Feb 12:52:52 12:56:22 25° 96° (E) 12:59:49 437.305
UKube-1 13 Feb 12:56:19 13:00:10 32° 290° (WNW) 13:03:59 .
SPROUT 13 Feb 12:58:23 13:02:40 89° 102° (ESE) 13:06:55 437.525
CUSAT 1 13 Feb 13:02:21 13:07:39 76° 264° (W) 13:11:35 437.405
50 SAT 13 Feb 13:02:41 13:05:01 16° 293° (WNW) 13:07:22 437.505
ITAMSAT 1 13 Feb 13:05:34 13:08:15 14° 61° (ENE) 13:10:56 435.822/435.867
AISAT 13 Feb 13:05:38 13:09:08 23° 292° (WNW) 13:12:35 437.250
CUBEBUG 1 13 Feb 13:13:55 13:17:19 23° 292° (WNW) 13:20:42 437.445
DX 1 13 Feb 13:16:10 13:19:06 18° 294° (WNW) 13:22:01 434.975-435.025
Oscar 19 13 Feb 13:24:18 13:29:29 76° 257° (WSW) 13:34:41 437.125/150
ITUPSAT 1 13 Feb 13:47:55 13:51:19 19° 93° (E) 13:54:40 437.325
SO-50 13 Feb 13:50:19 13:55:03 60° 242° (WSW) 13:59:35 436.795
RS-15 13 Feb 13:53:04 14:02:56 33° 325° (NW) 14:13:20 29.354- 29.394
BEESAT 13 Feb 13:53:28 13:57:11 22° 94° (E) 14:00:51 436.000
AO-7 13 Feb 14:07:22 14:14:14 30° 57° (ENE) 14:21:07 29.400- 29.500
JAS-2 13 Feb 14:08:47 14:16:09 52° 260° (W) 14:22:54 435.910
DANDE 13 Feb 14:09:01 14:14:46 36° 273° (W) 14:19:13 436.750
YUBILEINY 13 Feb 14:09:20 14:18:02 57° 78° (ENE) 14:26:37 435.215
Cosmos 2491 13 Feb 14:15:52 14:23:16 32° 84° (E) 14:30:38 435.465 / 435.565
ISS 13 Feb 14:23:32 14:26:39 42° 136° (SE) 14:29:45 145.825
Gurwin Techsat 1B 13 Feb 14:27:26 14:32:36 53° 260° (W) 14:37:48 435.225
TISAT 1 13 Feb 14:28:34 14:31:55 24° 292° (WNW) 14:35:18 437.305
ITAMSAT 1 13 Feb 14:41:54 14:47:05 73° 257° (WSW) 14:52:18 435.822/435.867
SWISSCUBE 13 Feb 14:45:32 14:50:22 85° 106° (ESE) 14:55:10 437.505
HORYU 2 13 Feb 14:55:21 14:56:47 11° 62° (ENE) 14:58:12 437.375
Cosmos 2504 13 Feb 15:07:20 15:14:26 28° 69° (ENE) 15:21:07 435.465 / 435.565
M-CUBED/EXP-1 PRIME 13 Feb 15:19:58 15:23:08 31° 68° (ENE) 15:26:09 437.505
ITUPSAT 1 13 Feb 15:24:46 15:29:19 43° 289° (WNW) 15:33:52 437.325
AUBIESAT-1 13 Feb 15:26:07 15:29:13 30° 67° (ENE) 15:32:13 437.475
BEESAT 13 Feb 15:30:39 15:35:03 37° 290° (WNW) 15:39:26 436.000
STARS 13 Feb 15:37:18 15:40:23 19° 94° (E) 15:43:28 437.465
BEESAT 3 13 Feb 15:45:35 15:48:39 22° 112° (ESE) 15:51:44 437.485
AO-7 13 Feb 15:58:08 16:06:25 64° 256° (WSW) 16:14:44 29.400- 29.500
ISS 13 Feb 16:00:29 16:03:11 24° 333° (NNW) 16:05:54 145.825
KKS-1 13 Feb 16:04:13 16:08:40 73° 103° (ESE) 16:13:04 437.445
YUBILEINY 13 Feb 16:06:59 16:14:15 30° 277° (W) 16:21:30 435.215
Cosmos 2491 13 Feb 16:11:14 16:19:39 52° 283° (WNW) 16:28:07 435.465 / 435.565
RS-15 13 Feb 16:13:03 16:20:47 19° 360° (N) 16:28:43 29.354- 29.394
BEESAT 2 13 Feb 16:16:42 16:20:14 30° 114° (ESE) 16:23:47 435.950
O/OREOS (USA 219) 13 Feb 16:23:05 16:25:53 16° 55° (NE) 16:28:41 437.305
SWISSCUBE 13 Feb 16:26:22 16:27:26 11° 300° (WNW) 16:28:30 437.505
MOZHAYETS 4 13 Feb 16:27:17 16:31:50 51° 100° (E) 16:36:20
HORYU 2 13 Feb 16:28:22 16:32:46 68° 258° (WSW) 16:37:10 437.375
CUTE-I 13 Feb 16:51:29 16:54:59 18° 62° (ENE) 16:58:29 437.470
M-CUBED/EXP-1 PRIME 13 Feb 16:56:00 16:57:50 13° 260° (W) 16:59:37 437.505
Cosmos 2504 13 Feb 17:00:04 17:08:20 58° 269° (W) 17:16:01 435.465 / 435.565
AUBIESAT-1 13 Feb 17:01:56 17:03:51 14° 260° (W) 17:05:45 437.475
Cubesat XI-IV 13 Feb 17:05:43 17:09:54 24° 65° (ENE) 17:14:06 437.490
AIST 2 13 Feb 17:09:29 17:10:15 10° 107° (ESE) 17:11:01 435.215
STARS 13 Feb 17:12:51 17:16:51 36° 289° (WNW) 17:20:51 437.465
AO-85 13 Feb 17:13:10 17:15:57 14° 38° (NE) 17:18:37 145.980
CUBESAT XI-V 13 Feb 17:20:16 17:23:33 19° 93° (E) 17:26:48 437.345
BEESAT 3 13 Feb 17:22:40 17:26:13 31° 308° (NW) 17:29:48 437.485
LilacSat-2 13 Feb 17:27:25 17:30:27 23° 70° (ENE) 17:33:29 437.200
KKS-1 13 Feb 17:43:33 17:44:36 11° 298° (WNW) 17:45:39 437.445
BRITE-PL 13 Feb 17:45:21 17:50:16 31° 69° (ENE) 17:55:01 437.365/2234.400
BEESAT 2 13 Feb 17:54:51 17:58:08 23° 311° (NW) 18:01:25 435.950
O/OREOS (USA 219) 13 Feb 18:01:09 18:05:37 54° 253° (WSW) 18:10:07 437.305
MOZHAYETS 4 13 Feb 18:05:45 18:08:34 16° 295° (WNW) 18:11:22
PCSat 13 Feb 18:16:07 18:19:42 18° 45° (NE) 18:23:16 145.827
RS-15 13 Feb 18:28:18 18:38:47 32° 35° (NE) 18:49:25 29.354- 29.394
CUTE-I 13 Feb 18:29:17 18:34:31 59° 259° (W) 18:39:49 437.470
GOMX 1 13 Feb 18:29:41 18:34:39 41° 72° (ENE) 18:39:24 467.674
AIST 2 13 Feb 18:44:02 18:48:10 67° 303° (WNW) 18:52:20 435.215
Cubesat XI-IV 13 Feb 18:44:40 18:49:41 42° 261° (W) 18:54:46 437.490
